www.pogodaiklimat.ru

Погода и климат >> Архив погоды >> Россия >> Камчатский край >> Мыс Озерной


ПОГОДА на Мысе Озерном

  • Прогноз погоды на Мысе Озерном
  • Монитор погоды на Мысе Озерном

АРХИВ ПОГОДЫ на Мысе Озерном

Время (UTC), дата Ветер
(напр.,м/с)
 
Видим.   Явления Облачность Т
(С)
Тd
(С)
f
(%)
Тe
(С)
Тes
(С)
Комфортность P
(гПа)
Po
(гПа)
Тmin
(С)
Tmax
(С)
R
(мм)
R24
(мм)
S
(см)
09 11.02 З 6-10
{13}
20 км слаб. ливневой снег {метель} 10/10 600 м
[Cb cap]
-13.6 -16.8 77 -23 -23 1000.9 999.7 -11.4 0.3
12 11.02 З 7-11
{13}
20 км позёмок {ливн. осадки} 6/0
[Ci fib]
-15.1 -18.2 77 -25 -25 1001.3 1000.1
15 11.02 З 3
{11}
20 км {метель} 3/0
[Ci fib]
-17.2 -20.1 78 -24 -24 1002.3 1001.1
18 11.02 З 3 20 км {метель} ясно -22.3 -24.7 81 -30 -30 1002.8 1001.6
21 11.02 СЗ 5 20 км 10/3 600 м
[Sc Ci fib]
-23.4 -25.9 80 -34 -34 опасность
обморожения
1004.6 1003.3 -23.4 0.0 62
00 12.02 СЗ 4 20 км 8/3 600 м
[Sc Ac trans]
-19.1 -22.4 75 -28 -27 1006.2 1005.0
03 12.02 З 2 20 км 9/9 600 м
[Sc]
-16.6 -22.6 60 -22 -22 1007.3 1006.1
06 12.02 З 1 20 км 9/9 600 м
[Sc]
-17.1 -23.8 56 -20 -20 1008.8 1007.6
09 12.02 СЗ 5 20 км 4/4 600 м
[Sc]
-19.4 -25.4 59 -29 -29 1010.8 1009.6 -16.3
12 12.02 З 5 20 км 8/8 600 м
[Sc]
-19.5 -25.2 60 -29 -29 1012.0 1010.8
15 12.02 СЗ 3 20 км ясно -21.3 -26.0 66 -29 -29 1014.0 1012.8
18 12.02 З 4 20 км ясно -19.7 -25.9 58 -29 -29 1016.0 1014.8
21 12.02 СЗ 5 20 км 1/0
[Ci fib]
-25.3 -29.0 71 -37 -37 опасность
обморожения
1018.7 1017.4 -25.3 62
00 13.02 З 4 20 км 1/0
[Ci fib]
-23.4 -28.7 62 -33 -32 опасность
обморожения
1021.0 1019.7 -25.5
03 13.02 З 3 20 км 1/0
[Ci fib]
-19.3 -25.6 57 -27 -25 1022.4 1021.1
06 13.02 З 4 20 км 10/0
[Cs]
-21.4 -26.1 66 -31 -31 опасность
обморожения
1022.0 1020.7
09 13.02 З 4 20 км 10/0
[Ac trans Cs]
-22.1 -25.8 72 -32 -32 опасность
обморожения
1022.9 1021.6 -19.0
12 13.02 З 3 20 км слаб. ливневой снег 10/10 600 м
[Cb cap]
-18.0 -21.2 76 -25 -25 1020.8 1019.5
15 13.02 С 4 20 км в посл. час ливневой снег 10/10 600 м
[Sc diur, vesp]
-10.3 -13.9 75 -17 -17 1017.3 1016.1
18 13.02 С 7-11
{11}
1000 м ливневой снег {метель} 10/10 200 м
[Cb cap]
-9.2 -10.4 91 -18 -18 1011.8 1010.6
21 13.02 СВ 9-14
{14}
500 м ливневой снег {метель} 10/10 100 м
[Cb cap]
-6.5 -7.4 93 -16 -16 1006.3 1005.1 -22.9 1 64
00 14.02 С 10-17
{20}
500 м ливневой снег {метель} 10/10 100 м
[Cb cap]
-9.8 -11.0 91 -20 -20 999.1 997.9
03 14.02 С 13-22
{23}
500 м метель {ливн. осадки} ?/? -12.5 -14.1 88 -25 -25 990.3 989.1
06 14.02 СЗ 10-18
{23}
200 м ливневой снег {метель} 10/10 100 м
[Cb cap]
-11.6 -13.0 89 -23 -23 984.8 983.6
09 14.02 С 14-20
{22}
50 м метель {ливн. осадки} ?/? -9.8 -11.0 91 -22 -22 980.0 978.8 -6.2 6
12 14.02 С 16-26
{26}
50 м метель {ливн. осадки} ?/? -7.9 -9.5 88 -20 -20 976.7 975.5
15 14.02 З 9-17
{26}
2000 м ливневой снег {метель} 10/10 100 м
[Cb cap]
-7.2 -9.0 87 -17 -17 976.4 975.2
18 14.02 З 4-13
{18}
4000 м слаб. ливневой снег {метель} 10/10 300 м
[Cb cap]
-7.2 -8.7 89 -14 -14 976.9 975.8
21 14.02 З 5-10
{13}
2000 м ливневой снег {метель} 10/10 200 м
[Cb cap]
-6.5 -8.5 86 -14 -14 977.6 976.5 -9.8 2 62
00 15.02 З 5
{11}
1000 м ливневой снег {метель} 10/10 200 м
[Cb cap]
-6.4 -7.9 89 -14 -14 978.0 976.9
03 15.02 СЗ 8-13
{14}
4000 м слаб. ливневой снег {метель} 10/8 200 м
[Cb cap Ci fib]
-5.3 -7.7 83 -14 -14 977.6 976.5
06 15.02 СЗ 9-14
{17}
4000 м слаб. ливневой снег {метель} 10/10 300 м
[Cb cap]
-5.6 -7.9 84 -15 -15 977.9 976.8
09 15.02 СЗ 9-12
{14}
2000 м ливневой снег {метель} 10/10 300 м
[Cb cap]
-5.8 -8.9 79 -15 -15 978.3 977.2 -4.9 0.7
12 15.02 З 5-11
{13}
20 км слаб. ливневой снег {метель} 10/10 300 м
[Cb cap]
-6.9 -13.0 62 -14 -14 979.0 977.9
15 15.02 ЮЗ 2
{11}
20 км {ливн. осадки, метель} 10/10 600 м
[Sc]
-10.4 -15.3 67 -15 -15 980.2 979.0
18 15.02 З 5 20 км {ливн. осадки, метель} 8/8 600 м
[Sc]
-11.6 -16.7 66 -20 -20 980.6 979.4
21 15.02 З 4 20 км 10/0
[Ac trans Ci fib]
-12.6 -17.1 69 -20 -20 981.9 980.7 -12.6 0.0 62
00 16.02 ЮЗ 1 20 км 6/0
[Ac trans Ci fib]
-12.2 -18.2 61 -14 -12 982.2 981.0 -12.7
03 16.02 СЗ 3 20 км 8/0
[Ac trans]
-11.1 -18.4 55 -17 -16 982.0 980.8
06 16.02 СЗ 2 20 км 6/0
[Ac trans Ci fib]
-12.5 -19.1 58 -17 -17 982.6 981.4
09 16.02 З 7-10
{12}
20 км позёмок 8/0
[Ci fib]
-12.1 -19.5 54 -22 -22 983.2 982.0 -11.0
12 16.02 З 8-11
{12}
20 км позёмок 4/0
[Ci fib]
-13.5 -20.8 54 -24 -24 984.4 983.2
15 16.02 З 7
{12}
20 км позёмок ясно -13.3 -21.1 52 -23 -23 985.2 984.0
18 16.02 З 6
{10}
20 км позёмок ясно -13.6 -20.9 54 -23 -23 986.5 985.3
21 16.02 З 4 20 км {метель} 3/0
[Ac trans Ci fib]
-19.2 -23.6 68 -28 -28 988.4 987.2 -19.2 61
00 17.02 З 2 20 км {метель} 8/0
[Ac trans Ci fib]
-15.8 -21.8 60 -21 -19 990.1 988.9 -20.2
03 17.02 СЗ 3 20 км 4/0
[Ci fib]
-13.7 -20.2 58 -20 -19 990.5 989.3
06 17.02 З 3 20 км 3/0
[Ci fib]
-18.4 -22.5 70 -26 -26 991.7 990.5
09 17.02 СЗ 4 20 км ясно -21.1 -24.4 75 -30 -30 992.6 991.4 -13.4
12 17.02 СЗ 4 20 км ясно -21.6 -24.8 75 -31 -31 опасность
обморожения
993.4 992.2
15 17.02 З 6
{10}
20 км позёмок 4/0
[Ac trans]
-14.6 -20.5 61 -24 -24 993.3 992.1
18 17.02 З 7-10
{10}
20 км позёмок 10/0
[As trans]
-15.2 -18.3 77 -26 -26 993.9 992.7
21 17.02 З 9-13
{15}
20 км позёмок 10/0
[Ac lent Cs]
-14.5 -17.5 78 -26 -26 994.7 993.5 -22.6 62
00 18.02 З 8-10
{14}
20 км позёмок 10/0
[Ac As]
-13.9 -17.9 72 -24 -24 996.6 995.4
03 18.02 З 8-10
{11}
20 км позёмок 10/0
[Ci fib]
-13.0 -18.6 63 -23 -23 997.5 996.3
06 18.02 З 6
{12}
20 км позёмок 6/0
[Ci fib]
-11.9 -18.7 57 -21 -21 999.2 998.0

 

Местоположение метеостанции Мыс Озерной (Камчатский край, Россия): широта 57.65 долгота 163.20 высота над уровнем моря 9 м.

В архиве по умолчанию представлена погода на Мысе Озерном за последнюю неделю. Архивные данные за месяц целиком и за предыдущие месяцы, начиная с января 2011 года, Вы можете получить, выбрав интересующий диапазон дат из раскрывающегося списка и нажав кнопку "Ввод!".


*Определитесь, кто Вы:
робот инопланетянин человек

Внимание! Время в таблицах - всемирное. Для получения местного времени необходимо прибавить поправку, которая равна 12 ч.

Смотрите также архив погоды в соседних городах и на ближайших метеорологических станциях:

Погода в Усть-Камчатске (Камчатский край, Россия) (162 км)
Погода на Мысе Африка (Камчатский край, Россия) (164 км)
Погода в Оссоре (Камчатский край, Россия) (176 км)
Погода в Ключах (Камчатский край, Россия) (207 км)
Погода в Палане (Камчатский край, Россия) (250 км)
Погода в Усть-Воямполке (Камчатский край, Россия) (259 км)
Погода в Козыревске (Камчатский край, Россия) (273 км)
Погода в Тигиле (Камчатский край, Россия) (274 км)
Погода на Острове Беринга (Камчатский край, Россия) (319 км)
Погода в Эссо (Камчатский край, Россия) (334 км)

Пояснения к столбцам:

Ветер - указаны скорость ветра в м/с - средняя за 10 мин, порывы в срок и между сроками (в фигурных скобках) и направление, откуда дует ветер: С - северный, СВ - северо-восточный, В - восточный, ЮВ - юго-восточный, Ю - южный, ЮЗ - юго-западный, З - западный, СЗ - северо-западный.
Видимость - горизонтальная дальность видимости в метрах или километрах. При видимости от 1 до 10 км при отсутствии осадков обычно наблюдается дымка, при ухудшении видимости до 1 км и менее - туман. В сухую погоду видимость может ухудшаться дымом, пылью или мглою.
Явления - указаны атмосферные явления, наблюдавшиеся в срок или в последний час перед сроком; фигурными скобками обозначены явления, наблюдавшиеся между сроками (за 1-3 часа до срока); квадратными скобками обозначены град или гололедные отложения с указанием их диаметра в мм.
Облачность - указаны через наклонную черту общая и нижняя облачность в баллах и высота нижней границы облаков в метрах; квадратными скобками обозначены формы облаков: Ci - перистые, Cs - перисто-слоистые, Cc - перисто-кучевые, Ac - высококучевые, As - высокослоистые, Sc - слоисто-кучевые, Ns - слоисто-дождевые, Cu - кучевые, Cb - кучево-дождевые. Подробнее классификацию облаков см. в Атласе облаков (PDF).
T - Температура воздуха - температура, измеренная на высоте 2 м над землей.
Td - Температура точки росы - температура, при понижении до которой содержащийся в воздухе водяной пар достигнет насыщения.
f - Относительная влажность воздуха - влажноcть воздуха, измеренная на высоте 2 м над землей.
Te - Эффективная температура - температура, которую ощущает одетый по сезону человек в тени. Характеристика душности погоды. При расчете учитывается влияние влажности воздуха и скорости ветра на теплоощущения человека.
Tes - Эффективная температура на солнце - температура, которую ощущает человек, с поправкой на солнечный нагрев. Характеристика знойности погоды. Зависит от высоты солнца над горизонтом, облачности и скорости ветра. Ночью, в пасмурную погоду, а также при ветре 12 м/с и более поправка равна нулю.
P - Атмосферное давление - приведенное к уровню моря атмосферное давление.
Po - Атмосферное давление - измеренное на уровне метеостанции атмосферное давление.
Tmin - Минимальная температура - минимум температуры воздуха на высоте 2 м над землей.
Tmax - Максимальная температура - максимум температуры воздуха на высоте 2 м над землей.
R - Количество осадков - Количество выпавших осадков за период времени, мм. При наведении курсора мыши на число - период времени, за который выпало указанное количество осадков.
R24 - Количество осадков - Количество выпавших осадков за 24 часа, мм.
S - Снежный покров - Высота снежного покрова, см. При наведении курсора мыши на число - состояние снежного покрова и степень покрытия местности в баллах.